Time,TemperatureF,DewpointF,PressureIn,WindDirection,WindDirectionDegrees,WindSpeedMPH,WindSpeedGustMPH,Humidity,HourlyPrecipIn,Conditions,Clouds,dailyrainin,SoftwareType,DateUTC
2013-09-06 00:01:00,69.4,64.8,30.09,NW,311,0.0,1.0,85,0.00,,,0.00,meteohub,2013-09-06 04:01:00,
2013-09-06 00:02:00,69.4,64.8,30.09,NW,311,0.0,1.0,85,0.00,,,0.00,meteohub,2013-09-06 04:02:00,
2013-09-06 00:03:00,69.3,64.9,30.09,NW,311,0.0,1.0,86,0.00,,,0.00,meteohub,2013-09-06 04:03:00,
2013-09-06 00:09:00,69.1,64.8,30.09,NW,311,0.0,1.0,86,0.00,,,0.00,meteohub,2013-09-06 04:09:00,
2013-09-06 00:14:00,68.9,64.9,30.09,NW,311,0.0,1.0,87,0.00,,,0.00,meteohub,2013-09-06 04:14:00,
2013-09-06 00:19:00,68.5,64.2,30.09,NW,311,0.0,1.0,86,0.00,,,0.00,meteohub,2013-09-06 04:19:00,
2013-09-06 00:24:00,68.4,64.4,30.09,NW,311,0.0,2.0,87,0.00,,,0.00,meteohub,2013-09-06 04:24:00,
2013-09-06 00:30:00,68.4,64.0,30.09,NW,311,0.0,2.0,86,0.00,,,0.00,meteohub,2013-09-06 04:30:00,
2013-09-06 00:35:00,68.2,63.5,30.09,NW,311,0.0,2.0,85,0.00,,,0.00,meteohub,2013-09-06 04:35:00,
2013-09-06 00:40:00,68.4,63.7,30.09,NW,311,0.0,2.0,85,0.00,,,0.00,meteohub,2013-09-06 04:40:00,
2013-09-06 00:45:00,68.4,63.7,30.09,NW,311,2.0,3.0,85,0.00,,,0.00,meteohub,2013-09-06 04:45:00,
2013-09-06 00:50:00,68.4,63.7,30.10,NW,311,1.0,3.0,85,0.00,,,0.00,meteohub,2013-09-06 04:50:00,
2013-09-06 00:56:00,68.4,63.7,30.10,NW,311,0.0,3.0,85,0.00,,,0.00,meteohub,2013-09-06 04:56:00,
2013-09-06 01:01:00,68.4,64.0,30.10,NW,311,0.0,2.0,86,0.00,,,0.00,meteohub,2013-09-06 05:01:00,
2013-09-06 01:06:00,68.2,63.5,30.10,NW,311,0.0,2.0,85,0.00,,,0.00,meteohub,2013-09-06 05:06:00,
2013-09-06 01:11:00,68.2,63.5,30.09,NW,311,0.0,0.0,85,0.00,,,0.00,meteohub,2013-09-06 05:11:00,
2013-09-06 01:16:00,68.0,63.3,30.09,NW,311,1.0,1.0,85,0.00,,,0.00,meteohub,2013-09-06 05:16:00,
2013-09-06 01:22:00,67.8,63.1,30.09,NW,311,0.0,1.0,85,0.00,,,0.00,meteohub,2013-09-06 05:22:00,
2013-09-06 01:27:00,67.8,63.1,30.09,NW,311,0.0,2.0,85,0.00,,,0.00,meteohub,2013-09-06 05:27:00,
2013-09-06 01:32:00,67.8,63.1,30.09,WNW,298,2.0,2.0,85,0.00,,,0.00,meteohub,2013-09-06 05:32:00,
2013-09-06 01:37:00,67.8,62.8,30.09,WNW,298,0.0,3.0,84,0.00,,,0.00,meteohub,2013-09-06 05:37:00,
2013-09-06 01:42:00,67.8,63.1,30.09,WNW,298,0.0,3.0,85,0.00,,,0.00,meteohub,2013-09-06 05:42:00,
2013-09-06 01:47:00,67.8,63.1,30.09,WNW,298,1.0,3.0,85,0.00,,,0.00,meteohub,2013-09-06 05:47:00,
2013-09-06 01:52:00,67.8,62.8,30.09,WNW,298,1.0,2.0,84,0.00,,,0.00,meteohub,2013-09-06 05:52:00,
2013-09-06 01:57:00,67.6,63.0,30.09,NW,308,1.0,3.0,85,0.00,,,0.00,meteohub,2013-09-06 05:57:00,
2013-09-06 02:02:00,67.6,62.6,30.10,NW,308,2.0,3.0,84,0.00,,,0.00,meteohub,2013-09-06 06:02:00,
2013-09-06 02:07:00,67.6,62.6,30.10,NW,311,0.0,3.0,84,0.00,,,0.00,meteohub,2013-09-06 06:07:00,
2013-09-06 02:12:00,67.5,62.4,30.10,NW,311,2.0,3.0,84,0.00,,,0.00,meteohub,2013-09-06 06:12:00,
2013-09-06 02:17:00,67.5,62.4,30.10,NW,319,1.0,3.0,84,0.00,,,0.00,meteohub,2013-09-06 06:17:00,
2013-09-06 02:22:00,67.5,62.4,30.10,NW,319,2.0,3.0,84,0.00,,,0.00,meteohub,2013-09-06 06:22:00,
2013-09-06 02:27:00,67.5,62.4,30.10,NW,324,2.0,3.0,84,0.00,,,0.00,meteohub,2013-09-06 06:27:00,
2013-09-06 02:32:00,67.5,62.4,30.10,NW,324,3.0,4.0,84,0.00,,,0.00,meteohub,2013-09-06 06:32:00,
2013-09-06 02:37:00,67.5,62.4,30.10,NW,324,1.0,4.0,84,0.00,,,0.00,meteohub,2013-09-06 06:37:00,
2013-09-06 02:42:00,67.3,62.2,30.10,NW,324,0.0,4.0,84,0.00,,,0.00,meteohub,2013-09-06 06:42:00,
2013-09-06 02:47:00,67.3,62.2,30.11,NW,324,3.0,4.0,84,0.00,,,0.00,meteohub,2013-09-06 06:47:00,
2013-09-06 02:52:00,67.3,62.2,30.11,NW,324,3.0,3.0,84,0.00,,,0.00,meteohub,2013-09-06 06:52:00,
2013-09-06 02:57:00,67.1,62.1,30.11,NW,324,2.0,3.0,84,0.00,,,0.00,meteohub,2013-09-06 06:57:00,
2013-09-06 03:02:00,66.9,61.9,30.11,NW,324,1.0,3.0,84,0.00,,,0.00,meteohub,2013-09-06 07:02:00,
2013-09-06 03:07:00,66.9,61.9,30.11,NW,324,1.0,3.0,84,0.00,,,0.00,meteohub,2013-09-06 07:07:00,
2013-09-06 03:12:00,66.7,61.7,30.11,NW,324,2.0,3.0,84,0.00,,,0.00,meteohub,2013-09-06 07:12:00,
2013-09-06 03:17:00,66.6,61.9,30.11,NW,324,1.0,3.0,85,0.00,,,0.00,meteohub,2013-09-06 07:17:00,
2013-09-06 03:22:00,66.6,61.9,30.11,NW,324,0.0,3.0,85,0.00,,,0.00,meteohub,2013-09-06 07:22:00,
2013-09-06 03:27:00,66.4,61.7,30.11,NW,324,1.0,3.0,85,0.00,,,0.00,meteohub,2013-09-06 07:27:00,
2013-09-06 03:32:00,66.2,61.5,30.11,NW,324,1.0,2.0,85,0.00,,,0.00,meteohub,2013-09-06 07:32:00,
2013-09-06 03:37:00,66.0,61.3,30.11,NW,324,2.0,3.0,85,0.00,,,0.00,meteohub,2013-09-06 07:37:00,
2013-09-06 03:42:00,66.0,61.3,30.11,NW,324,2.0,3.0,85,0.00,,,0.00,meteohub,2013-09-06 07:42:00,
2013-09-06 03:47:00,65.8,61.2,30.11,NW,324,0.0,3.0,85,0.00,,,0.00,meteohub,2013-09-06 07:47:00,
2013-09-06 03:52:00,65.7,61.3,30.11,NW,324,0.0,3.0,86,0.00,,,0.00,meteohub,2013-09-06 07:52:00,
2013-09-06 03:57:00,65.7,61.3,30.11,NW,324,2.0,2.0,86,0.00,,,0.00,meteohub,2013-09-06 07:57:00,
2013-09-06 04:02:00,65.5,61.2,30.11,NW,324,0.0,2.0,86,0.00,,,0.00,meteohub,2013-09-06 08:02:00,
2013-09-06 04:07:00,65.3,60.6,30.11,NW,324,0.0,2.0,85,0.00,,,0.00,meteohub,2013-09-06 08:07:00,
2013-09-06 04:12:00,65.1,60.4,30.11,NW,324,0.0,2.0,85,0.00,,,0.00,meteohub,2013-09-06 08:12:00,
2013-09-06 04:17:00,65.1,60.4,30.11,NW,324,1.0,3.0,85,0.00,,,0.00,meteohub,2013-09-06 08:17:00,
2013-09-06 04:22:00,65.1,60.1,30.11,NW,324,0.0,3.0,84,0.00,,,0.00,meteohub,2013-09-06 08:22:00,
2013-09-06 04:27:00,64.9,59.7,30.11,NW,324,0.0,3.0,83,0.00,,,0.00,meteohub,2013-09-06 08:27:00,
2013-09-06 04:32:00,64.9,59.7,30.11,NW,324,0.0,3.0,83,0.00,,,0.00,meteohub,2013-09-06 08:32:00,
2013-09-06 04:37:00,64.9,59.7,30.11,NW,324,2.0,3.0,83,0.00,,,0.00,meteohub,2013-09-06 08:37:00,
2013-09-06 04:42:00,64.9,59.7,30.11,NW,324,1.0,3.0,83,0.00,,,0.00,meteohub,2013-09-06 08:42:00,
2013-09-06 04:47:00,64.9,59.4,30.11,NW,324,1.0,3.0,82,0.00,,,0.00,meteohub,2013-09-06 08:47:00,
2013-09-06 04:52:00,64.9,59.0,30.11,WNW,303,1.0,4.0,81,0.00,,,0.00,meteohub,2013-09-06 08:52:00,
2013-09-06 04:57:00,64.9,58.3,30.11,NW,321,3.0,4.0,79,0.00,,,0.00,meteohub,2013-09-06 08:57:00,
2013-09-06 05:02:00,64.9,58.6,30.12,NW,314,1.0,3.0,80,0.00,,,0.00,meteohub,2013-09-06 09:02:00,
2013-09-06 05:07:00,64.8,58.1,30.12,NW,313,0.0,3.0,79,0.00,,,0.00,meteohub,2013-09-06 09:07:00,
2013-09-06 05:12:00,64.8,57.7,30.12,WNW,293,0.0,3.0,78,0.00,,,0.00,meteohub,2013-09-06 09:12:00,
2013-09-06 05:17:00,64.8,57.0,30.12,NW,318,0.0,2.0,76,0.00,,,0.00,meteohub,2013-09-06 09:17:00,
2013-09-06 05:22:00,64.8,57.0,30.12,West,275,0.0,3.0,76,0.00,,,0.00,meteohub,2013-09-06 09:22:00,
2013-09-06 05:27:00,64.8,57.0,30.12,WNW,288,0.0,3.0,76,0.00,,,0.00,meteohub,2013-09-06 09:27:00,
2013-09-06 05:32:00,64.8,57.0,30.12,NW,311,1.0,3.0,76,0.00,,,0.00,meteohub,2013-09-06 09:32:00,
2013-09-06 05:37:00,64.8,57.0,30.12,NW,311,1.0,3.0,76,0.00,,,0.00,meteohub,2013-09-06 09:37:00,
2013-09-06 05:42:00,64.6,56.8,30.12,NW,311,1.0,3.0,76,0.00,,,0.00,meteohub,2013-09-06 09:42:00,
2013-09-06 05:47:00,64.6,56.8,30.12,NW,311,0.0,3.0,76,0.00,,,0.00,meteohub,2013-09-06 09:47:00,
2013-09-06 05:52:00,64.6,56.8,30.13,NW,311,0.0,2.0,76,0.00,,,0.00,meteohub,2013-09-06 09:52:00,
2013-09-06 05:57:00,64.4,56.7,30.13,NW,311,0.0,2.0,76,0.00,,,0.00,meteohub,2013-09-06 09:57:00,
2013-09-06 06:02:00,64.2,56.5,30.13,NW,311,1.0,2.0,76,0.00,,,0.00,meteohub,2013-09-06 10:02:00,
2013-09-06 06:07:00,64.2,56.8,30.13,NW,311,0.0,2.0,77,0.00,,,0.00,meteohub,2013-09-06 10:07:00,
2013-09-06 06:12:00,64.0,56.7,30.13,NW,311,0.0,2.0,77,0.00,,,0.00,meteohub,2013-09-06 10:12:00,
2013-09-06 06:17:00,64.0,56.7,30.13,NW,311,1.0,2.0,77,0.00,,,0.00,meteohub,2013-09-06 10:17:00,
2013-09-06 06:22:00,63.9,56.5,30.14,NW,311,0.0,2.0,77,0.00,,,0.00,meteohub,2013-09-06 10:22:00,
2013-09-06 06:27:00,63.9,56.8,30.14,NW,311,1.0,2.0,78,0.00,,,0.00,meteohub,2013-09-06 10:27:00,
2013-09-06 06:32:00,63.7,56.7,30.14,NW,311,1.0,2.0,78,0.00,,,0.00,meteohub,2013-09-06 10:32:00,
2013-09-06 06:37:00,63.7,56.7,30.14,NW,311,2.0,2.0,78,0.00,,,0.00,meteohub,2013-09-06 10:37:00,
2013-09-06 06:42:00,63.3,55.9,30.14,NW,318,1.0,3.0,77,0.00,,,0.00,meteohub,2013-09-06 10:42:00,
2013-09-06 06:47:00,63.3,56.3,30.14,NW,318,1.0,3.0,78,0.00,,,0.00,meteohub,2013-09-06 10:47:00,
2013-09-06 06:52:00,63.1,56.1,30.14,NW,318,2.0,3.0,78,0.00,,,0.00,meteohub,2013-09-06 10:52:00,
2013-09-06 06:57:00,63.1,56.1,30.14,NW,318,1.0,3.0,78,0.00,,,0.00,meteohub,2013-09-06 10:57:00,
2013-09-06 07:02:00,63.0,56.3,30.15,NW,318,1.0,3.0,79,0.00,,,0.00,meteohub,2013-09-06 11:02:00,
2013-09-06 07:07:00,63.0,56.3,30.15,NW,318,1.0,3.0,79,0.00,,,0.00,meteohub,2013-09-06 11:07:00,
2013-09-06 07:12:00,62.8,56.5,30.15,NW,318,1.0,3.0,80,0.00,,,0.00,meteohub,2013-09-06 11:12:00,
2013-09-06 07:17:00,62.6,56.3,30.15,NW,318,2.0,3.0,80,0.00,,,0.00,meteohub,2013-09-06 11:17:00,
2013-09-06 07:22:00,62.4,56.1,30.15,NW,318,1.0,3.0,80,0.00,,,0.00,meteohub,2013-09-06 11:22:00,
2013-09-06 07:27:00,62.2,56.3,30.15,NW,319,1.0,3.0,81,0.00,,,0.00,meteohub,2013-09-06 11:27:00,
2013-09-06 07:32:00,62.2,56.3,30.16,NW,319,2.0,3.0,81,0.00,,,0.00,meteohub,2013-09-06 11:32:00,
2013-09-06 07:37:00,62.1,56.1,30.16,NW,319,2.0,3.0,81,0.00,,,0.00,meteohub,2013-09-06 11:37:00,
2013-09-06 07:42:00,61.9,55.9,30.16,NW,324,4.0,4.0,81,0.00,,,0.00,meteohub,2013-09-06 11:42:00,
2013-09-06 07:47:00,61.9,55.9,30.17,NNW,327,2.0,4.0,81,0.00,,,0.00,meteohub,2013-09-06 11:47:00,
2013-09-06 07:52:00,61.9,55.9,30.17,NNW,327,3.0,4.0,81,0.00,,,0.00,meteohub,2013-09-06 11:52:00,
2013-09-06 07:57:00,61.9,55.9,30.17,NNW,327,3.0,4.0,81,0.00,,,0.00,meteohub,2013-09-06 11:57:00,
2013-09-06 08:02:00,61.9,55.9,30.17,NNW,327,3.0,4.0,81,0.00,,,0.00,meteohub,2013-09-06 12:02:00,
2013-09-06 08:07:00,61.9,56.3,30.17,NW,325,3.0,4.0,82,0.00,,,0.00,meteohub,2013-09-06 12:07:00,
2013-09-06 08:12:00,62.1,56.5,30.17,NW,325,2.0,4.0,82,0.00,,,0.00,meteohub,2013-09-06 12:12:00,
2013-09-06 08:17:00,62.1,56.5,30.17,NW,325,3.0,4.0,82,0.00,,,0.00,meteohub,2013-09-06 12:17:00,
2013-09-06 08:22:00,62.2,56.7,30.17,NNW,329,2.0,4.0,82,0.00,,,0.00,meteohub,2013-09-06 12:22:00,
2013-09-06 08:27:00,62.4,56.8,30.17,NW,325,2.0,4.0,82,0.00,,,0.00,meteohub,2013-09-06 12:27:00,
2013-09-06 08:32:00,62.6,57.0,30.17,NW,324,1.0,4.0,82,0.00,,,0.00,meteohub,2013-09-06 12:32:00,
2013-09-06 08:37:00,62.8,57.6,30.17,NW,324,2.0,4.0,83,0.00,,,0.00,meteohub,2013-09-06 12:37:00,
2013-09-06 08:42:00,63.0,57.4,30.17,NW,324,2.0,4.0,82,0.00,,,0.00,meteohub,2013-09-06 12:42:00,
2013-09-06 08:47:00,63.1,57.2,30.17,NW,324,2.0,4.0,81,0.00,,,0.00,meteohub,2013-09-06 12:47:00,
2013-09-06 08:52:00,63.3,57.4,30.17,NW,324,3.0,4.0,81,0.00,,,0.00,meteohub,2013-09-06 12:52:00,
2013-09-06 08:57:00,63.7,57.7,30.17,NW,325,2.0,4.0,81,0.00,,,0.00,meteohub,2013-09-06 12:57:00,
2013-09-06 09:02:00,64.0,58.1,30.17,NNW,329,3.0,4.0,81,0.00,,,0.00,meteohub,2013-09-06 13:02:00,
2013-09-06 09:07:00,64.2,58.6,30.18,NNW,329,3.0,4.0,82,0.00,,,0.00,meteohub,2013-09-06 13:07:00,
2013-09-06 09:12:00,64.6,58.3,30.17,NNW,328,2.0,4.0,80,0.00,,,0.00,meteohub,2013-09-06 13:12:00,
2013-09-06 09:17:00,64.9,58.6,30.18,NW,323,2.0,3.0,80,0.00,,,0.00,meteohub,2013-09-06 13:17:00,
2013-09-06 09:22:00,65.1,58.8,30.18,NW,324,3.0,4.0,80,0.00,,,0.00,meteohub,2013-09-06 13:22:00,
2013-09-06 09:27:00,65.5,59.2,30.18,NW,320,4.0,4.0,80,0.00,,,0.00,meteohub,2013-09-06 13:27:00,
2013-09-06 09:32:00,65.7,59.4,30.18,NW,320,1.0,4.0,80,0.00,,,0.00,meteohub,2013-09-06 13:32:00,
2013-09-06 09:37:00,65.8,59.5,30.18,NW,324,3.0,4.0,80,0.00,,,0.00,meteohub,2013-09-06 13:37:00,
2013-09-06 09:42:00,66.2,59.9,30.18,WNW,292,1.0,4.0,80,0.00,,,0.00,meteohub,2013-09-06 13:42:00,
2013-09-06 09:47:00,66.7,60.4,30.18,NNW,329,2.0,3.0,80,0.00,,,0.00,meteohub,2013-09-06 13:47:00,
2013-09-06 09:52:00,67.5,60.4,30.18,NNW,329,0.0,3.0,78,0.00,,,0.00,meteohub,2013-09-06 13:52:00,
2013-09-06 09:57:00,67.6,60.6,30.18,NNW,329,2.0,3.0,78,0.00,,,0.00,meteohub,2013-09-06 13:57:00,
2013-09-06 10:02:00,68.0,60.8,30.18,NW,313,2.0,3.0,78,0.00,,,0.00,meteohub,2013-09-06 14:02:00,
2013-09-06 10:07:00,68.4,61.2,30.19,NW,323,2.0,4.0,78,0.00,,,0.00,meteohub,2013-09-06 14:07:00,
2013-09-06 10:12:00,68.9,61.7,30.18,NW,323,2.0,4.0,78,0.00,,,0.00,meteohub,2013-09-06 14:12:00,
2013-09-06 10:18:00,69.3,61.7,30.18,NNW,329,3.0,4.0,77,0.00,,,0.00,meteohub,2013-09-06 14:18:00,
2013-09-06 10:23:00,69.3,61.7,30.18,NNW,329,1.0,3.0,77,0.00,,,0.00,meteohub,2013-09-06 14:23:00,
2013-09-06 10:28:00,69.6,62.4,30.18,NW,313,3.0,3.0,78,0.00,,,0.00,meteohub,2013-09-06 14:28:00,
2013-09-06 10:33:00,70.2,62.2,30.18,NNW,332,3.0,4.0,76,0.00,,,0.00,meteohub,2013-09-06 14:33:00,
2013-09-06 10:38:00,70.3,62.1,30.18,NW,321,1.0,4.0,75,0.00,,,0.00,meteohub,2013-09-06 14:38:00,
2013-09-06 10:43:00,70.7,62.4,30.19,NW,320,2.0,4.0,75,0.00,,,0.00,meteohub,2013-09-06 14:43:00,
2013-09-06 10:49:00,71.1,62.8,30.19,NW,315,0.0,3.0,75,0.00,,,0.00,meteohub,2013-09-06 14:49:00,
2013-09-06 10:54:00,71.4,62.8,30.19,NW,315,0.0,3.0,74,0.00,,,0.00,meteohub,2013-09-06 14:54:00,
2013-09-06 10:59:00,71.8,62.2,30.19,NW,321,1.0,3.0,72,0.00,,,0.00,meteohub,2013-09-06 14:59:00,
2013-09-06 11:04:00,72.0,63.1,30.19,NNW,329,0.0,4.0,74,0.00,,,0.00,meteohub,2013-09-06 15:04:00,
2013-09-06 11:09:00,72.1,62.6,30.19,NW,321,1.0,5.0,72,0.00,,,0.00,meteohub,2013-09-06 15:09:00,
2013-09-06 11:15:00,72.3,62.8,30.19,NNW,327,2.0,5.0,72,0.00,,,0.00,meteohub,2013-09-06 15:15:00,
2013-09-06 11:20:00,72.5,63.3,30.19,NW,321,2.0,3.0,73,0.00,,,0.00,meteohub,2013-09-06 15:20:00,
2013-09-06 11:25:00,72.9,61.7,30.19,NW,317,0.0,5.0,68,0.00,,,0.00,meteohub,2013-09-06 15:25:00,
2013-09-06 11:30:00,73.0,62.2,30.19,NW,321,0.0,5.0,69,0.00,,,0.00,meteohub,2013-09-06 15:30:00,
2013-09-06 11:35:00,73.6,62.4,30.19,NW,309,1.0,5.0,68,0.00,,,0.00,meteohub,2013-09-06 15:35:00,
2013-09-06 11:41:00,73.6,62.4,30.19,NW,306,1.0,3.0,68,0.00,,,0.00,meteohub,2013-09-06 15:41:00,
2013-09-06 11:46:00,74.1,62.4,30.19,NW,320,3.0,6.0,67,0.00,,,0.00,meteohub,2013-09-06 15:46:00,
2013-09-06 11:51:00,74.1,61.2,30.19,NW,317,2.0,6.0,64,0.00,,,0.00,meteohub,2013-09-06 15:51:00,
2013-09-06 11:56:00,74.1,61.5,30.19,NW,317,2.0,6.0,65,0.00,,,0.00,meteohub,2013-09-06 15:56:00,
2013-09-06 12:02:00,74.1,62.1,30.18,NW,315,3.0,4.0,66,0.00,,,0.00,meteohub,2013-09-06 16:02:00,
2013-09-06 12:07:00,74.7,62.1,30.18,NW,304,0.0,4.0,65,0.00,,,0.00,meteohub,2013-09-06 16:07:00,
2013-09-06 12:12:00,74.7,61.2,30.18,East,87,1.0,4.0,63,0.00,,,0.00,meteohub,2013-09-06 16:12:00,
2013-09-06 12:17:00,74.7,61.2,30.18,WSW,258,0.0,3.0,63,0.00,,,0.00,meteohub,2013-09-06 16:17:00,
2013-09-06 12:22:00,74.8,62.2,30.18,SSE,159,0.0,3.0,65,0.00,,,0.00,meteohub,2013-09-06 16:22:00,
2013-09-06 12:27:00,75.4,62.4,30.18,WNW,302,2.0,3.0,64,0.00,,,0.00,meteohub,2013-09-06 16:27:00,
2013-09-06 12:32:00,75.2,61.3,30.18,NW,324,0.0,3.0,62,0.00,,,0.00,meteohub,2013-09-06 16:32:00,
2013-09-06 12:37:00,75.2,61.3,30.18,NW,319,0.0,4.0,62,0.00,,,0.00,meteohub,2013-09-06 16:37:00,
2013-09-06 12:42:00,75.4,61.5,30.18,ESE,108,0.0,4.0,62,0.00,,,0.00,meteohub,2013-09-06 16:42:00,
2013-09-06 12:47:00,75.6,62.1,30.18,North,355,3.0,4.0,63,0.00,,,0.00,meteohub,2013-09-06 16:47:00,
2013-09-06 12:52:00,75.4,60.4,30.17,NW,306,0.0,4.0,60,0.00,,,0.00,meteohub,2013-09-06 16:52:00,
2013-09-06 12:57:00,75.0,61.2,30.17,NW,319,1.0,4.0,62,0.00,,,0.00,meteohub,2013-09-06 16:57:00,
2013-09-06 13:02:00,75.2,60.8,30.17,NNW,327,0.0,4.0,61,0.00,,,0.00,meteohub,2013-09-06 17:02:00,
2013-09-06 13:07:00,74.8,61.9,30.17,SW,219,0.0,4.0,64,0.00,,,0.00,meteohub,2013-09-06 17:07:00,
2013-09-06 13:12:00,75.7,60.8,30.17,NW,307,2.0,4.0,60,0.00,,,0.00,meteohub,2013-09-06 17:12:00,
2013-09-06 13:17:00,76.1,61.2,30.17,WSW,242,1.0,6.0,60,0.00,,,0.00,meteohub,2013-09-06 17:17:00,
2013-09-06 13:22:00,76.3,61.9,30.17,NNW,331,1.0,6.0,61,0.00,,,0.00,meteohub,2013-09-06 17:22:00,
2013-09-06 13:27:00,75.7,62.8,30.17,NNW,330,0.0,6.0,64,0.00,,,0.00,meteohub,2013-09-06 17:27:00,
2013-09-06 13:32:00,76.3,61.3,30.17,WSW,256,2.0,4.0,60,0.00,,,0.00,meteohub,2013-09-06 17:32:00,
2013-09-06 13:37:00,76.3,61.3,30.17,SSE,154,1.0,5.0,60,0.00,,,0.00,meteohub,2013-09-06 17:37:00,
2013-09-06 13:42:00,76.5,62.4,30.17,North,355,1.0,5.0,62,0.00,,,0.00,meteohub,2013-09-06 17:42:00,
2013-09-06 13:47:00,76.6,61.7,30.16,WSW,257,1.0,4.0,60,0.00,,,0.00,meteohub,2013-09-06 17:47:00,
2013-09-06 13:52:00,77.2,61.7,30.16,NW,310,2.0,4.0,59,0.00,,,0.00,meteohub,2013-09-06 17:52:00,
2013-09-06 13:57:00,76.8,61.0,30.16,NW,311,1.0,4.0,58,0.00,,,0.00,meteohub,2013-09-06 17:57:00,
2013-09-06 14:02:00,77.0,61.2,30.16,North,355,2.0,4.0,58,0.00,,,0.00,meteohub,2013-09-06 18:02:00,
2013-09-06 14:07:00,76.6,62.2,30.15,NW,321,1.0,4.0,61,0.00,,,0.00,meteohub,2013-09-06 18:07:00,
2013-09-06 14:12:00,76.6,60.8,30.15,NNW,327,3.0,4.0,58,0.00,,,0.00,meteohub,2013-09-06 18:12:00,
2013-09-06 14:17:00,76.3,61.3,30.15,North,349,2.0,5.0,60,0.00,,,0.00,meteohub,2013-09-06 18:17:00,
2013-09-06 14:22:00,77.0,60.1,30.15,NW,321,3.0,5.0,56,0.00,,,0.00,meteohub,2013-09-06 18:22:00,
2013-09-06 14:27:00,77.2,60.8,30.15,NW,320,0.0,5.0,57,0.00,,,0.00,meteohub,2013-09-06 18:27:00,
2013-09-06 14:32:00,77.2,62.2,30.14,West,281,1.0,5.0,60,0.00,,,0.00,meteohub,2013-09-06 18:32:00,
2013-09-06 14:37:00,77.5,60.6,30.14,NW,304,0.0,5.0,56,0.00,,,0.00,meteohub,2013-09-06 18:37:00,
2013-09-06 14:42:00,77.5,61.2,30.14,NW,325,2.0,3.0,57,0.00,,,0.00,meteohub,2013-09-06 18:42:00,
2013-09-06 14:47:00,76.6,61.2,30.14,NW,325,0.0,3.0,59,0.00,,,0.00,meteohub,2013-09-06 18:47:00,
2013-09-06 14:52:00,75.9,61.5,30.14,NW,325,0.0,3.0,61,0.00,,,0.00,meteohub,2013-09-06 18:52:00,
2013-09-06 14:57:00,76.8,61.3,30.14,NNW,328,2.0,3.0,59,0.00,,,0.00,meteohub,2013-09-06 18:57:00,
2013-09-06 15:02:00,77.2,59.7,30.13,NNW,328,2.0,3.0,55,0.00,,,0.00,meteohub,2013-09-06 19:02:00,
2013-09-06 15:07:00,77.4,61.3,30.13,SW,217,1.0,3.0,58,0.00,,,0.00,meteohub,2013-09-06 19:07:00,
2013-09-06 15:12:00,77.4,61.0,30.13,SSW,202,0.0,3.0,57,0.00,,,0.00,meteohub,2013-09-06 19:12:00,
2013-09-06 15:17:00,77.4,60.4,30.13,NNW,340,1.0,3.0,56,0.00,,,0.00,meteohub,2013-09-06 19:17:00,
2013-09-06 15:22:00,77.5,60.1,30.13,NW,313,1.0,4.0,55,0.00,,,0.00,meteohub,2013-09-06 19:22:00,
2013-09-06 15:27:00,77.5,60.1,30.12,NW,306,3.0,4.0,55,0.00,,,0.00,meteohub,2013-09-06 19:27:00,
2013-09-06 15:32:00,77.5,60.1,30.12,WNW,292,1.0,4.0,55,0.00,,,0.00,meteohub,2013-09-06 19:32:00,
2013-09-06 15:37:00,77.5,60.6,30.12,WNW,294,0.0,3.0,56,0.00,,,0.00,meteohub,2013-09-06 19:37:00,
2013-09-06 15:42:00,77.7,60.8,30.12,NW,319,4.0,4.0,56,0.00,,,0.00,meteohub,2013-09-06 19:42:00,
2013-09-06 15:47:00,76.8,60.4,30.12,NW,322,3.0,6.0,57,0.00,,,0.00,meteohub,2013-09-06 19:47:00,
2013-09-06 15:52:00,76.3,61.0,30.12,NW,319,1.0,6.0,59,0.00,,,0.00,meteohub,2013-09-06 19:52:00,
2013-09-06 15:57:00,76.3,61.3,30.12,NW,319,0.0,6.0,60,0.00,,,0.00,meteohub,2013-09-06 19:57:00,
2013-09-06 16:02:00,76.3,62.2,30.12,WNW,290,0.0,4.0,62,0.00,,,0.00,meteohub,2013-09-06 20:02:00,
2013-09-06 16:07:00,76.6,61.7,30.11,NW,309,3.0,3.0,60,0.00,,,0.00,meteohub,2013-09-06 20:07:00,
2013-09-06 16:12:00,77.4,60.4,30.12,East,99,0.0,3.0,56,0.00,,,0.00,meteohub,2013-09-06 20:12:00,
2013-09-06 16:17:00,77.9,60.4,30.11,NNW,334,2.0,3.0,55,0.00,,,0.00,meteohub,2013-09-06 20:17:00,
2013-09-06 16:22:00,77.7,60.8,30.11,NNW,334,0.0,5.0,56,0.00,,,0.00,meteohub,2013-09-06 20:22:00,
2013-09-06 16:27:00,77.2,61.7,30.11,NNW,333,0.0,5.0,59,0.00,,,0.00,meteohub,2013-09-06 20:27:00,
2013-09-06 16:32:00,76.3,61.3,30.11,NNW,333,0.0,4.0,60,0.00,,,0.00,meteohub,2013-09-06 20:32:00,
2013-09-06 16:37:00,75.4,61.5,30.11,NNW,333,0.0,2.0,62,0.00,,,0.00,meteohub,2013-09-06 20:37:00,
2013-09-06 16:42:00,74.3,62.2,30.11,NNW,333,0.0,0.0,66,0.00,,,0.00,meteohub,2013-09-06 20:42:00,
2013-09-06 16:47:00,74.1,63.3,30.11,NNW,333,0.0,0.0,69,0.00,,,0.00,meteohub,2013-09-06 20:47:00,
2013-09-06 16:52:00,74.7,63.3,30.11,NW,311,1.0,0.0,68,0.00,,,0.00,meteohub,2013-09-06 20:52:00,
2013-09-06 16:57:00,75.4,63.1,30.11,WNW,297,0.0,2.0,66,0.00,,,0.00,meteohub,2013-09-06 20:57:00,
2013-09-06 17:02:00,76.3,61.0,30.11,NW,317,3.0,4.0,59,0.00,,,0.00,meteohub,2013-09-06 21:02:00,
2013-09-06 17:07:00,76.6,60.8,30.11,NW,320,0.0,5.0,58,0.00,,,0.00,meteohub,2013-09-06 21:07:00,
2013-09-06 17:12:00,76.6,63.1,30.11,NW,320,1.0,5.0,63,0.00,,,0.00,meteohub,2013-09-06 21:12:00,
2013-09-06 17:17:00,76.6,62.2,30.11,NNW,333,0.0,5.0,61,0.00,,,0.00,meteohub,2013-09-06 21:17:00,
2013-09-06 17:22:00,75.9,64.2,30.10,NNW,333,2.0,4.0,67,0.00,,,0.00,meteohub,2013-09-06 21:22:00,
2013-09-06 17:27:00,75.9,64.6,30.11,NNW,333,0.0,4.0,68,0.00,,,0.00,meteohub,2013-09-06 21:27:00,
2013-09-06 17:32:00,75.6,65.1,30.10,NNW,333,0.0,3.0,70,0.00,,,0.00,meteohub,2013-09-06 21:32:00,
2013-09-06 17:37:00,75.4,63.7,30.11,NW,315,2.0,3.0,67,0.00,,,0.00,meteohub,2013-09-06 21:37:00,
2013-09-06 17:42:00,76.3,61.3,30.10,NNW,344,0.0,3.0,60,0.00,,,0.00,meteohub,2013-09-06 21:42:00,
2013-09-06 17:47:00,76.5,61.0,30.11,North,355,0.0,3.0,59,0.00,,,0.00,meteohub,2013-09-06 21:47:00,
2013-09-06 17:52:00,76.5,61.0,30.10,NNW,336,3.0,4.0,59,0.00,,,0.00,meteohub,2013-09-06 21:52:00,
2013-09-06 17:57:00,76.1,63.0,30.10,NNW,336,0.0,4.0,64,0.00,,,0.00,meteohub,2013-09-06 21:57:00,
2013-09-06 18:02:00,75.7,60.8,30.10,NW,319,0.0,4.0,60,0.00,,,0.00,meteohub,2013-09-06 22:02:00,
2013-09-06 18:07:00,75.7,60.4,30.10,NW,315,0.0,3.0,59,0.00,,,0.00,meteohub,2013-09-06 22:07:00,
2013-09-06 18:12:00,75.0,62.4,30.10,NW,315,0.0,4.0,65,0.00,,,0.00,meteohub,2013-09-06 22:12:00,
2013-09-06 18:17:00,74.8,63.5,30.10,NW,315,0.0,4.0,68,0.00,,,0.00,meteohub,2013-09-06 22:17:00,
2013-09-06 18:22:00,73.9,63.1,30.10,NW,315,0.0,4.0,69,0.00,,,0.00,meteohub,2013-09-06 22:22:00,
2013-09-06 18:27:00,73.8,61.7,30.10,NW,317,0.0,3.0,66,0.00,,,0.00,meteohub,2013-09-06 22:27:00,
2013-09-06 18:32:00,73.2,63.3,30.10,NW,317,0.0,3.0,71,0.00,,,0.00,meteohub,2013-09-06 22:32:00,
2013-09-06 18:37:00,73.0,63.5,30.10,NW,317,0.0,3.0,72,0.00,,,0.00,meteohub,2013-09-06 22:37:00,
2013-09-06 18:42:00,72.7,64.2,30.10,NW,317,0.0,3.0,75,0.00,,,0.00,meteohub,2013-09-06 22:42:00,
2013-09-06 18:47:00,72.1,64.2,30.10,NW,317,0.0,0.0,76,0.00,,,0.00,meteohub,2013-09-06 22:47:00,
2013-09-06 18:52:00,71.8,64.2,30.10,NW,317,0.0,0.0,77,0.00,,,0.00,meteohub,2013-09-06 22:52:00,
2013-09-06 18:57:00,71.4,63.9,30.10,NW,317,0.0,0.0,77,0.00,,,0.00,meteohub,2013-09-06 22:57:00,
2013-09-06 19:02:00,71.2,63.3,30.10,NW,317,0.0,0.0,76,0.00,,,0.00,meteohub,2013-09-06 23:02:00,
2013-09-06 19:07:00,71.2,64.0,30.10,NW,317,0.0,0.0,78,0.00,,,0.00,meteohub,2013-09-06 23:07:00,
2013-09-06 19:12:00,71.1,63.5,30.10,NW,317,0.0,0.0,77,0.00,,,0.00,meteohub,2013-09-06 23:12:00,
2013-09-06 19:17:00,70.9,63.3,30.10,NW,317,0.0,0.0,77,0.00,,,0.00,meteohub,2013-09-06 23:17:00,
2013-09-06 19:22:00,70.5,63.3,30.10,NW,317,0.0,0.0,78,0.00,,,0.00,meteohub,2013-09-06 23:22:00,
2013-09-06 19:27:00,70.5,63.0,30.10,NW,317,0.0,0.0,77,0.00,,,0.00,meteohub,2013-09-06 23:27:00,
2013-09-06 19:32:00,70.3,63.1,30.10,NW,317,0.0,0.0,78,0.00,,,0.00,meteohub,2013-09-06 23:32:00,
2013-09-06 19:37:00,70.2,62.6,30.10,NW,317,0.0,0.0,77,0.00,,,0.00,meteohub,2013-09-06 23:37:00,
2013-09-06 19:42:00,70.0,63.1,30.10,NW,317,0.0,0.0,79,0.00,,,0.00,meteohub,2013-09-06 23:42:00,
2013-09-06 19:47:00,69.6,62.1,30.11,NW,317,0.0,0.0,77,0.00,,,0.00,meteohub,2013-09-06 23:47:00,
2013-09-06 19:52:00,69.4,61.5,30.11,NW,317,0.0,0.0,76,0.00,,,0.00,meteohub,2013-09-06 23:52:00,
2013-09-06 19:57:00,69.4,61.2,30.11,NW,317,0.0,0.0,75,0.00,,,0.00,meteohub,2013-09-06 23:57:00,
2013-09-06 20:02:00,69.4,61.5,30.11,NW,317,0.0,0.0,76,0.00,,,0.00,meteohub,2013-09-07 00:02:00,
2013-09-06 20:07:00,69.4,61.2,30.11,NW,317,0.0,0.0,75,0.00,,,0.00,meteohub,2013-09-07 00:07:00,
2013-09-06 20:12:00,69.4,61.2,30.11,NW,317,0.0,0.0,75,0.00,,,0.00,meteohub,2013-09-07 00:12:00,
2013-09-06 20:17:00,69.4,61.5,30.12,NW,317,0.0,0.0,76,0.00,,,0.00,meteohub,2013-09-07 00:17:00,
2013-09-06 20:22:00,69.4,61.5,30.12,NW,317,0.0,0.0,76,0.00,,,0.00,meteohub,2013-09-07 00:22:00,
2013-09-06 20:27:00,69.3,61.3,30.12,NW,317,0.0,0.0,76,0.00,,,0.00,meteohub,2013-09-07 00:27:00,
2013-09-06 20:32:00,69.3,61.3,30.12,NW,317,0.0,0.0,76,0.00,,,0.00,meteohub,2013-09-07 00:32:00,
2013-09-06 20:37:00,69.1,61.2,30.12,NW,317,0.0,0.0,76,0.00,,,0.00,meteohub,2013-09-07 00:37:00,
2013-09-06 20:42:00,69.1,61.2,30.12,NW,317,0.0,0.0,76,0.00,,,0.00,meteohub,2013-09-07 00:42:00,
2013-09-06 20:47:00,68.9,61.0,30.12,NW,317,0.0,0.0,76,0.00,,,0.00,meteohub,2013-09-07 00:47:00,
2013-09-06 20:52:00,68.7,60.8,30.12,NW,317,0.0,0.0,76,0.00,,,0.00,meteohub,2013-09-07 00:52:00,
2013-09-06 20:57:00,68.5,61.0,30.12,NW,317,0.0,0.0,77,0.00,,,0.00,meteohub,2013-09-07 00:57:00,
2013-09-06 21:02:00,68.4,61.2,30.12,NW,317,0.0,0.0,78,0.00,,,0.00,meteohub,2013-09-07 01:02:00,
2013-09-06 21:07:00,68.4,61.2,30.12,NW,317,0.0,0.0,78,0.00,,,0.00,meteohub,2013-09-07 01:07:00,
2013-09-06 21:12:00,68.2,60.6,30.12,NW,317,0.0,0.0,77,0.00,,,0.00,meteohub,2013-09-07 01:12:00,
2013-09-06 21:17:00,68.2,60.6,30.12,NW,317,0.0,0.0,77,0.00,,,0.00,meteohub,2013-09-07 01:17:00,
2013-09-06 21:22:00,68.2,60.6,30.12,NW,317,0.0,0.0,77,0.00,,,0.00,meteohub,2013-09-07 01:22:00,
2013-09-06 21:27:00,68.2,60.3,30.12,NW,311,0.0,0.0,76,0.00,,,0.00,meteohub,2013-09-07 01:27:00,
2013-09-06 21:32:00,68.0,60.1,30.12,NW,314,0.0,0.0,76,0.00,,,0.00,meteohub,2013-09-07 01:32:00,
2013-09-06 21:37:00,67.8,59.9,30.13,NW,314,0.0,0.0,76,0.00,,,0.00,meteohub,2013-09-07 01:37:00,
2013-09-06 21:42:00,67.8,59.9,30.13,NW,314,0.0,0.0,76,0.00,,,0.00,meteohub,2013-09-07 01:42:00,
2013-09-06 21:47:00,67.6,59.7,30.13,NW,314,0.0,0.0,76,0.00,,,0.00,meteohub,2013-09-07 01:47:00,
2013-09-06 21:52:00,67.6,59.4,30.13,NW,314,0.0,0.0,75,0.00,,,0.00,meteohub,2013-09-07 01:52:00,
2013-09-06 21:57:00,67.5,59.5,30.13,NW,314,0.0,0.0,76,0.00,,,0.00,meteohub,2013-09-07 01:57:00,
2013-09-06 22:02:00,67.5,59.2,30.14,NW,314,0.0,0.0,75,0.00,,,0.00,meteohub,2013-09-07 02:02:00,
2013-09-06 22:07:00,67.3,59.0,30.13,NW,314,0.0,0.0,75,0.00,,,0.00,meteohub,2013-09-07 02:07:00,
2013-09-06 22:12:00,67.3,59.5,30.14,NW,314,0.0,0.0,76,0.00,,,0.00,meteohub,2013-09-07 02:12:00,
2013-09-06 22:17:00,67.1,59.4,30.14,NW,314,0.0,0.0,76,0.00,,,0.00,meteohub,2013-09-07 02:17:00,
2013-09-06 22:22:00,66.9,59.2,30.14,NW,314,0.0,0.0,76,0.00,,,0.00,meteohub,2013-09-07 02:22:00,
2013-09-06 22:27:00,66.9,59.2,30.14,NW,314,0.0,0.0,76,0.00,,,0.00,meteohub,2013-09-07 02:27:00,
2013-09-06 22:32:00,66.9,59.2,30.14,NW,314,0.0,0.0,76,0.00,,,0.00,meteohub,2013-09-07 02:32:00,
2013-09-06 22:37:00,66.7,59.4,30.14,NW,314,0.0,0.0,77,0.00,,,0.00,meteohub,2013-09-07 02:37:00,
2013-09-06 22:42:00,66.7,59.4,30.14,NW,314,0.0,0.0,77,0.00,,,0.00,meteohub,2013-09-07 02:42:00,
2013-09-06 22:47:00,66.7,59.7,30.14,NW,314,0.0,0.0,78,0.00,,,0.00,meteohub,2013-09-07 02:47:00,
2013-09-06 22:52:00,66.6,59.5,30.14,NW,314,0.0,0.0,78,0.00,,,0.00,meteohub,2013-09-07 02:52:00,
2013-09-06 22:57:00,66.6,59.9,30.14,NW,314,0.0,0.0,79,0.00,,,0.00,meteohub,2013-09-07 02:57:00,
2013-09-06 23:02:00,66.6,59.5,30.14,NW,314,0.0,0.0,78,0.00,,,0.00,meteohub,2013-09-07 03:02:00,
2013-09-06 23:07:00,66.6,60.3,30.14,NW,314,0.0,0.0,80,0.00,,,0.00,meteohub,2013-09-07 03:07:00,
2013-09-06 23:12:00,66.4,59.7,30.14,NW,314,0.0,0.0,79,0.00,,,0.00,meteohub,2013-09-07 03:12:00,
2013-09-06 23:17:00,66.4,60.1,30.14,NW,314,0.0,0.0,80,0.00,,,0.00,meteohub,2013-09-07 03:17:00,
2013-09-06 23:22:00,66.4,60.1,30.14,NW,314,0.0,0.0,80,0.00,,,0.00,meteohub,2013-09-07 03:22:00,
2013-09-06 23:27:00,66.2,59.5,30.14,NW,312,0.0,0.0,79,0.00,,,0.00,meteohub,2013-09-07 03:27:00,
2013-09-06 23:32:00,66.0,59.4,30.14,NW,312,0.0,0.0,79,0.00,,,0.00,meteohub,2013-09-07 03:32:00,
2013-09-06 23:37:00,66.0,59.4,30.14,NW,312,0.0,0.0,79,0.00,,,0.00,meteohub,2013-09-07 03:37:00,
2013-09-06 23:42:00,66.0,59.7,30.14,NW,312,0.0,0.0,80,0.00,,,0.00,meteohub,2013-09-07 03:42:00,
2013-09-06 23:47:00,66.0,59.7,30.14,NW,312,0.0,0.0,80,0.00,,,0.00,meteohub,2013-09-07 03:47:00,
2013-09-06 23:52:00,66.0,59.7,30.13,NW,312,0.0,0.0,80,0.00,,,0.00,meteohub,2013-09-07 03:52:00,
2013-09-06 23:57:00,65.8,59.9,30.13,NW,312,0.0,0.0,81,0.00,,,0.00,meteohub,2013-09-07 03:57:00,